This demonstration page uses our WeatherBlox Daily Observations layout. Learn more.

Left ArrowRight Arrow

39.51506, -84.39828

Hourly Observations for December 14, 2015

Temp ( °F °C ) Dew Point ( °F °C ) Humidity (%) Winds ( mph kmh ) Pressure ( in mb ) Visibility ( mi km ) Precip ( " mm )
12:15 am 00:15 Clear 62 16.6 47 8.5 59 59 S 6 9 29.74 1007 10 16 N/A
12:35 am 00:35 Clear 62 16.9 47 8.2 57 57 SSE 7 11 29.71 1006 10 16 N/A
12:55 am 00:55 Clear 62 16.9 46 8 56 56 S 7 11 29.74 1007 10 16 N/A
1:15 am 01:15 Clear 62 16.8 46 7.7 55 55 SSE 7 11 29.71 1006 10 16 N/A
1:35 am 01:35 Clear 63 17.2 46 7.8 54 54 SSE 9 15 29.71 1006 10 16 N/A
1:55 am 01:55 Clear 64 18 46 8 52 52 SSE 7 11 29.68 1005 10 16 N/A
2:15 am 02:15 Clear 65 18.5 47 8.4 52 52 S 10 17 29.68 1005 10 16 N/A
2:35 am 02:35 Clear 64 18 46 7.8 52 52 S 14 22 29.68 1005 10 16 N/A
2:55 am 02:55 Clear 67 19.5 48 8.8 50 50 S 16 26 29.68 1005 10 16 N/A
3:15 am 03:15 Clear 67 19.4 48 9.1 52 52 S 8 13 29.65 1004 10 16 N/A
3:35 am 03:35 Clear 65 18.3 47 8.2 52 52 S 9 15 29.65 1004 10 16 N/A
3:55 am 03:55 Clear 67 19.5 49 9.2 52 52 S 14 22 29.62 1003 10 16 N/A
4:15 am 04:15 Clear 67 19.5 49 9.3 52 52 S 14 22 29.62 1003 10 16 N/A
4:35 am 04:35 Mostly Cloudy 69 20.5 50 10 51 51 S 16 26 29.62 1003 10 16 N/A
4:55 am 04:55 Mostly Cloudy 69 20.8 50 10.1 51 51 S 16 26 29.59 1002 10 16 N/A
5:15 am 05:15 Mostly Cloudy 69 20.8 49 9.6 49 49 S 16 26 29.59 1002 10 16 N/A
5:35 am 05:35 Cloudy 69 20.8 49 9.5 49 49 S 21 33 29.56 1001 10 16 N/A
5:55 am 05:55 Cloudy 69 20.8 49 9.5 49 49 S 14 22 29.53 1000 10 16 N/A
6:15 am 06:15 Partly Cloudy 69 20.8 49 9.4 48 48 S 20 31 29.53 1000 10 16 N/A
6:35 am 06:35 Mostly Cloudy 69 20.8 49 9.2 48 48 S 16 26 29.53 1000 10 16 N/A
6:55 am 06:55 Cloudy 69 20.8 51 10.3 51 51 SSW 37 59 29.56 1001 10 16 N/A
7:15 am 07:15 Cloudy with Rain 61 15.9 54 12.2 79 79 SSW 17 28 29.56 1001 5 8 N/A
7:35 am 07:35 Cloudy with Light Rain 60 15.3 55 13 86 86 SSW 16 26 29.59 1002 7 11 N/A
7:55 am 07:55 Cloudy with Light Rain 60 15.3 56 13.1 87 87 SW 10 17 29.59 1002 10 16 N/A
8:15 am 08:15 Cloudy with Light Rain 60 15.3 56 13.1 87 87 SSW 10 17 29.56 1001 10 16 N/A
8:35 am 08:35 Cloudy with Light Rain 60 15.3 55 13 86 86 S 10 17 29.56 1001 10 16 N/A
8:55 am 08:55 Cloudy with Light Rain 60 15.3 55 12.8 85 85 S 12 19 29.56 1001 10 16 N/A
9:15 am 09:15 Cloudy with Light Rain 60 15.3 55 12.8 85 85 S 12 19 29.53 1000 10 16 N/A
9:35 am 09:35 Cloudy with Light Rain 60 15.3 55 12.6 84 84 SSE 12 19 29.50 999 10 16 N/A
9:55 am 09:55 Cloudy with Light Rain 60 15.3 55 12.8 85 85 SSE 10 17 29.47 998 10 16 N/A
10:15 am 10:15 Cloudy with Light Rain 60 15.3 55 12.8 85 85 S 15 24 29.50 999 10 16 N/A
10:35 am 10:35 Cloudy with Light Rain 60 15.3 55 12.6 84 84 SSW 16 26 29.50 999 7 11 N/A
10:55 am 10:55 Cloudy 60 15.3 54 12.4 83 83 SW 20 31 29.50 999 10 16 N/A
11:15 am 11:15 Cloudy 60 15.3 52 11.2 77 77 SSW 18 30 29.50 999 10 16 N/A
11:35 am 11:35 Mostly Cloudy 61 15.9 52 10.9 72 72 SSW 22 35 29.47 998 10 16 N/A
11:55 am 11:55 Partly Cloudy 61 16 48 9 63 63 SSW 18 30 29.47 998 10 16 N/A
12:15 pm 12:15 Partly Cloudy 61 16.2 47 8.5 61 61 SW 22 35 29.47 998 10 16 N/A
12:35 pm 12:35 Mostly Cloudy 62 16.4 45 7.2 55 55 SW 29 46 29.47 998 10 16 N/A
12:55 pm 12:55 Mostly Cloudy 61 16 44 6.8 55 55 SW 23 37 29.47 998 10 16 N/A
1:15 pm 13:15 Mostly Cloudy 61 16 43 6.3 53 53 SW 29 46 29.47 998 10 16 N/A
1:35 pm 13:35 Cloudy 60 15.3 43 6.2 55 55 SW 24 39 29.44 997 10 16 N/A
1:55 pm 13:55 Cloudy 60 15.4 43 6.2 54 54 SW 16 26 29.44 997 10 16 N/A
2:15 pm 14:15 Cloudy 60 15.3 45 7.2 59 59 SW 22 35 29.47 998 10 16 N/A
2:35 pm 14:35 Cloudy 58 14.4 45 7.2 62 62 SW 18 30 29.47 998 10 16 N/A
2:55 pm 14:55 Cloudy 58 14.2 46 7.6 65 65 S 21 33 29.44 997 10 16 N/A
3:15 pm 15:15 Mostly Cloudy 57 13.8 48 8.7 72 72 SSW 15 24 29.44 997 10 16 N/A
3:35 pm 15:35 Cloudy 57 13.8 48 8.9 73 73 SSW 15 24 29.47 998 10 16 N/A
3:55 pm 15:55 Cloudy 57 13.8 46 7.8 67 67 SSW 31 50 29.47 998 10 16 N/A
4:15 pm 16:15 Cloudy with Light Rain 55 12.5 49 9.5 82 82 SW 14 22 29.50 999 7 11 N/A
4:35 pm 16:35 Cloudy 55 12.5 48 9 79 79 SW 17 28 29.50 999 10 16 N/A
4:55 pm 16:55 Cloudy 55 12.5 48 8.9 79 79 SW 16 26 29.50 999 10 16 N/A
5:15 pm 17:15 Mostly Cloudy 55 12.5 46 7.8 73 73 SW 23 37 29.50 999 10 16 N/A
5:35 pm 17:35 Mostly Cloudy 55 12.5 46 7.5 72 72 SW 22 35 29.50 999 10 16 N/A
5:55 pm 17:55 Cloudy 55 12.5 46 8 74 74 SW 15 24 29.50 999 10 16 N/A
6:15 pm 18:15 Cloudy 55 12.5 46 8 74 74 SW 15 24 29.53 1000 10 16 N/A
6:35 pm 18:35 Cloudy 55 12.5 46 7.5 72 72 SW 16 26 29.53 1000 10 16 N/A
6:55 pm 18:55 Cloudy with Light Rain 55 12.5 47 8.6 77 77 WSW 16 26 29.56 1001 5 8 N/A
7:15 pm 19:15 Cloudy with Light Rain 52 11 46 8 82 82 WSW 13 20 29.59 1002 10 16 N/A
7:35 pm 19:35 Cloudy 53 11.6 47 8.4 81 81 WSW 10 17 29.56 1001 10 16 N/A
7:55 pm 19:55 Cloudy 53 11.8 47 8.6 81 81 WSW 8 13 29.56 1001 10 16 N/A
8:15 pm 20:15 Cloudy with Light Rain 53 11.9 47 8.5 80 80 WSW 8 13 29.56 1001 10 16 N/A
8:35 pm 20:35 Cloudy with Light Snow 52 11 46 8 82 82 WSW 12 19 29.62 1003 7 11 N/A
8:55 pm 20:55 Cloudy with Rain 51 10.3 46 7.6 84 84 SW 13 20 29.62 1003 10 16 N/A
9:15 pm 21:15 Cloudy 50 9.8 45 7.1 83 83 SW 16 26 29.62 1003 10 16 N/A
9:35 pm 21:35 Cloudy 49 9.6 45 7 84 84 SW 13 20 29.62 1003 10 16 N/A
9:55 pm 21:55 Cloudy with Drizzle 49 9.6 45 7 84 84 SW 13 20 29.65 1004 10 16 N/A
10:15 pm 22:15 Cloudy 49 9.6 44 6.8 83 83 SW 12 19 29.65 1004 10 16 N/A
10:35 pm 22:35 Cloudy with Snow 49 9.6 45 7.1 85 85 W 9 15 29.65 1004 4 6 N/A
10:55 pm 22:55 Cloudy with Light Snow 49 9.6 45 7.2 85 85 W 14 22 29.68 1005 5 8 N/A
11:15 pm 23:15 Cloudy 49 9.6 43 6.3 80 80 W 18 30 29.68 1005 10 16 N/A
11:35 pm 23:35 Cloudy 49 9.6 43 6 78 78 WSW 13 20 29.71 1006 10 16 N/A
11:55 pm 23:55 Cloudy 49 9.6 43 5.9 78 78 W 12 19 29.71 1006 10 16 N/A

Powered by AerisWeather